Location: Newark
(54.5481°N, 3.5856°W)
Time: 05:02:30
(UTC+00:00)

OTV 5 (USA 277) - Visible Passes

Search period start: 17 October 2019 00:00
Search period end: 27 October 2019 00:00
Orbit: 310 x 324 km, 54.5° (Epoch: 08 October)

Date Brightness Start Highest point End Pass type
(mag) Time Alt. Az. Time Alt. Az. Time Alt. Az.
17 Oct ? 04:21:37 23° SE 04:21:37 23° SE 04:22:50 10° ESE visible
17 Oct ? 05:52:31 11° WSW 05:54:01 16° SW 05:55:49 10° S visible
18 Oct ? 04:36:01 20° SSE 04:36:01 20° SSE 04:37:09 10° SE visible
19 Oct ? 04:50:31 14° S 04:50:31 14° S 04:51:09 10° SSE visible
